Lid_Strength_Index
7 8 8 8 7 6 6 7 8 8 10 10 10 10 10 10 10 10 10 10 10 10 10 10 11 11 12 13 13 12 12 11 11 12 11 11 12 13 13 13 13 14 13
7 8 8 8 8 8 8 8 8 9 10 10 10 10 10 11 11 11 11 11 11 12 11 11 12 11 13 13 12 12 12 12 12 12 13 13 13 13 14 14 13 12 13
8 8 9 9 9 9 9 8 9 9 10 10 10 10 11 11 11 11 11 11 11 11 12 13 13 13 13 12 12 12 13 11 12 12 13 13 13 13 14 13 14 13 12
8 8 9 9 9 9 9 9 10 10 10 10 10 11 11 11 11 11 11 11 12 12 12 12 13 12 12 12 12 12 12 12 12 13 13 13 13 14 14 15 15 14 14
7 8 8 8 8 9 9 9 10 10 10 10 11 11 11 11 11 12 12 12 13 13 13 12 12 12 10 11 12 13 12 12 13 13 13 14 14 15 15 15 15 15 15
6 7 7 8 8 10 10 10 11 11 11 11 12 12 12 11 10 10 11 12 12 13 13 13 13 12 11 11 10 10 11 12 13 13 14 14 15 15 15 15 15 16 17
7 7 8 9 9 10 10 11 11 11 12 12 12 12 13 13 9 9 9 12 12 12 13 14 13 13 13 13 11 11 12 12 12 14 14 15 16 16 16 16 15 16 16
8 8 8 9 9 10 11 10 11 12 12 12 11 12 13 12 9 9 10 12 13 13 13 13 13 13 14 14 14 15 15 15 15 15 15 16 16 16 16 16 17 17 17
9 8 8 9 9 10 11 11 11 12 13 12 12 12 12 12 9 9 10 13 12 13 13 13 14 14 12 12 14 15 15 16 14 14 14 14 14 15 16 17 21 23 22
10 10 10 9 9 9 10 11 11 11 12 12 12 12 12 12 10 9 10 13 13 13 13 14 13 13 12 11 15 15 16 16 17 17 17 16 16 17 17 17 18 23 22
11 11 11 11 11 10 9 11 12 12 12 13 12 12 12 12 12 9 9 13 13 14 14 14 14 11 11 11 13 15 15 15 16 18 19 19 19 19 18 18 18 19 20
13 13 13 12 11 11 11 10 11 12 13 13 14 13 12 12 12 9 9 11 12 14 15 14 14 11 11 11 13 13 13 16 18 20 21 21 20 20 19 19 19 19 19
15 15 14 13 12 12 12 11 11 12 13 13 14 14 14 13 12 10 9 10 12 14 14 14 13 12 12 12 14 14 16 18 20 21 22 20 19 19 20 20 20 20 20
16 16 15 14 14 13 12 11 11 11 12 12 13 13 13 14 13 11 11 11 12 13 13 14 14 13 13 14 15 15 17 19 20 20 20 20 21 21 22 21 22 22 23
17 16 16 14 14 14 13 13 12 11 10 11 11 12 13 13 12 11 10 11 12 12 14 14 15 14 16 18 18 18 19 20 21 20 20 21 21 21 22 21 22 23 25
19 17 17 16 14 14 15 14 11 10 9 9 8 9 10 10 10 9 9 9 10 11 15 15 16 16 18 19 19 19 20 20 20 20 20 21 21 22 22 22 22 25 25
21 19 18 17 15 15 15 15 15 13 10 9 9 8 8 9 9 9 9 9 9 10 15 15 16 17 18 18 19 19 20 20 19 20 20 21 22 22 24 23 23 23 25
21 20 18 16 15 14 14 14 15 15 15 15 11 10 9 8 9 8 8 8 11 11 15 15 16 16 17 17 18 18 19 19 20 20 21 22 23 24 26 25 24 27 28
21 20 18 17 15 14 14 14 14 14 14 14 14 11 10 9 9 9 8 9 12 13 16 16 15 16 16 16 17 17 18 20 21 22 23 24 24 26 28 25 25 26 28
20 19 16 16 16 15 14 15 14 14 14 13 14 13 14 12 12 12 11 11 13 13 15 15 15 14 15 16 17 18 19 21 22 23 24 24 25 24 24 26 27 28 30
19 18 16 15 16 15 15 15 14 14 14 15 15 16 13 13 14 16 17 17 15 16 16 17 17 17 18 18 19 20 21 22 23 24 25 25 25 25 25 25 28 30 33
18 17 17 16 16 16 16 15 15 15 15 15 17 16 11 16 17 18 19 19 20 19 19 18 19 20 20 20 21 21 22 23 24 24 24 25 25 25 27 27 31 31 33
18 17 17 16 16 16 16 16 16 16 16 17 18 17 18 18 19 19 20 21 21 21 22 21 21 22 22 22 22 22 23 23 23 23 24 25 26 26 27 28 31 33 33
17 17 17 16 16 17 18 18 18 18 18 19 19 19 19 20 20 20 20 21 22 22 23 23 23 24 24 24 24 24 25 25 25 24 24 25 26 27 30 35 34 33 34
17 17 17 16 17 17 17 17 18 19 19 20 20 20 21 21 21 21 22 22 23 23 24 24 25 25 24 24 25 26 26 23 26 25 25 26 26 28 29 32 34 37 35
18 18 17 17 18 18 18 18 18 19 20 20 20 20 21 21 21 22 22 23 23 24 24 24 24 25 25 26 27 26 25 22 24 25 27 27 29 31 34 35 35 37 35